Regional Weather Roundup
Issued by NWS Albany, NY

Home | Current Version | Previous Version | Graphics & Text | Print | Product List | Glossary Off
Versions: 1 2 3 4 5 6 7 8 9 10 11 12 13 14 15 16 17 18 19 20 21 22 23 24 25 26 27 28 29 30 31 32 33 34 35 36 37 38 39 40 41 42 43 44 45 46 47 48 49 50

624
ASUS41 KALY 071210
RWRALY

NEW YORK STATE HOURLY WEATHER ROUNDUP
NATIONAL WEATHER SERVICE ALBANY NY
700 AM EST SUN FEB 07 2016

NOTE: "FAIR" INDICATES FEW OR NO CLOUDS BELOW 12,000 FEET WITH NO
SIGNIFICANT WEATHER AND/OR NO OBSTRUCTIONS TO VISIBILITY.

NYZ032-033-038>043-046>054-057>066-NYZ062>081-071300-
EAST


CITY           SKY/WX    TMP DP  RH WIND       PRES   REMARKS
ALBANY         CLEAR     26  18  71 S3        30.15F
GLENS FALLS    CLEAR     21  16  81 CALM      30.14S
POUGHKEEPSIE   CLEAR     22  17  81 CALM      30.18R
NEWBURGH       CLEAR     25  21  86 CALM      30.17R
MONTGOMERY     CLEAR     19  17  92 CALM      30.17R
WHITE PLAINS   PTCLDY    25  21  85 CALM      30.17R
ISLIP          PTCLDY    21  19  92 CALM      30.18S
NEW YORK CITY  PTCLDY    35  24  64 SW3       30.20R
CENTRAL PARK   CLEAR     35  20  54 W5        30.21R WCI  31
$$

NYZ005>009-017-018-044>046-055-056-071300-
CENTRAL


CITY           SKY/WX    TMP DP  RH WIND       PRES   REMARKS
FULTON         PTCLDY    28  22  78 CALM      30.13F
SYRACUSE       PTCLDY    24  22  91 CALM      30.13F
ROME           PTCLDY    22  19  89 SE3       30.15F
ELMIRA         CLEAR     17  15  92 CALM      30.12F
BINGHAMTON     CLEAR     26  17  68 CALM      30.07F
MONTICELLO     CLEAR     18  16  93 CALM      30.13R
$$

NYZ026>034-041>043-071300-
NORTH


CITY           SKY/WX    TMP DP  RH WIND       PRES   REMARKS
WATERTOWN      CLOUDY    34  29  82 SW5       30.12S WCI  30
FORT DRUM      NOT AVBL
MASSENA        CLOUDY    33  24  69 SW3       30.13R
SARANAC LAKE   CLOUDY    28  23  81 VRB5      30.04R WCI  23
PLATTSBURGH    CLOUDY    34  23  64 CALM      30.12R
$$

NYZ001>004-010>016-019>021-071300-
WEST


CITY           SKY/WX    TMP DP  RH WIND       PRES   REMARKS
NIAGARA FALLS  CLOUDY    34  28  79 SW5       30.08F WCI  30
BUFFALO        MOCLDY    31  23  72 SW5       30.09F WCI  26
DUNKIRK        MOCLDY    29  20  69 S6        30.09F WCI  23
JAMESTOWN      CLEAR     25  16  68 S3        30.04F
WELLSVILLE     CLEAR     26  16  65 W3        30.05F
ROCHESTER      PTCLDY    26  21  81 W3        30.11F
PENN YAN       CLEAR     26  19  74 CALM      30.11F
$$

             KEY
       WCI = WIND CHILL INDEX
       VSB = VISIBILITY
       HX  = HEAT INDEX
$$




USA.gov is the U.S. government's official web portal to all federal, state and local government web resources and services.